Weather History for Alma, MI

Change the Weather History Date:

Friday, February 21, 2014

  Actual Average Record
Temperature  
Mean Temperature 35 °F -  
Max Temperature 41 °F 37 °F 60 °F (1983)
Min Temperature 29 °F 17 °F -9 °F (1966)
Degree Days  
Heating Degree Days 30    
Moisture  
Dew Point 26 °F    
Average Humidity 74    
Maximum Humidity 100    
Minimum Humidity 52    
Precipitation  
Precipitation 0.00 in - - ()
Sea Level Pressure  
Sea Level Pressure 29.44 in    
Wind  
Wind Speed 19 mph (SW)    
Max Wind Speed 31 mph    
Max Gust Speed 45 mph    
Visibility 8 miles    
Events Snow    
Averages and records for this station are not official NWS values.
T = Trace of Precipitation, MM = Missing Value Source: NWS Daily Summary

Daily Weather History Graph

Daily Weather History Graph

Search for Another Location

Airport:

Trip Planner

Search our weather history database for the weather conditions in past years. The results will help you decide how hot, cold, wet, or windy it might be!

Date:

Astronomy

Feb. 21, 2014 Rise Set
Actual Time 7:27 AM EST 6:17 PM EST
Civil Twilight 6:58 AM EST 6:46 PM EST
Nautical Twilight 6:25 AM EST 7:19 PM EST
Astronomical Twilight 5:52 AM EST 7:52 PM EST
Moon 12:20 AM EST (2/21) 10:40 AM EST (2/21)
Length of Visible Light 11h 47m
Length of Day
10h 49m
Waning Gibbous, 61% of the Moon is Illuminated
Feb 21
Waning Gibbous
Feb 22
Last Quarter
Mar 1
New
Mar 8
First Quarter
Mar 16
Full

Hourly Weather History & Observations

Time (EST) Temp. Windchill Dew Point Humidity Pressure Visibility Wind Dir Wind Speed Gust Speed Precip Events Conditions
12:12 AM 38.3 °F 31.9 °F 38.3 °F 100% 29.30 in 2.0 mi SE 9.2 mph - N/A   Overcast
12:32 AM 38.8 °F 32.6 °F 38.8 °F 100% 29.30 in 1.5 mi SSE 9.2 mph - N/A   Overcast
12:52 AM 41.2 °F 33.7 °F 41.2 °F 100% 29.33 in 4.0 mi SW 13.8 mph 18.4 mph N/A   Overcast
1:12 AM 40.1 °F 32.0 °F 38.5 °F 94% 29.33 in 10.0 mi SW 15.0 mph 24.2 mph N/A   Overcast
1:32 AM 39.7 °F 31.2 °F 36.9 °F 89% 29.33 in 10.0 mi SW 16.1 mph 24.2 mph N/A   Overcast
1:53 AM 38.8 °F 28.5 °F 35.4 °F 88% 29.33 in 10.0 mi SW 21.9 mph 29.9 mph N/A   Overcast
2:13 AM 38.7 °F 28.8 °F 32.4 °F 78% 29.33 in 10.0 mi SW 19.6 mph 29.9 mph N/A   Overcast
2:33 AM 38.5 °F 28.6 °F 32.0 °F 78% 29.34 in 10.0 mi SSW 19.6 mph 28.8 mph N/A   Overcast
2:53 AM 38.3 °F 27.6 °F 32.0 °F 78% 29.34 in 10.0 mi SSW 23.0 mph 27.6 mph N/A   Overcast
3:15 AM 37.8 °F 27.1 °F 31.8 °F 79% 29.35 in 10.0 mi SSW 21.9 mph 31.1 mph N/A   Overcast
3:35 AM 37.4 °F 27.2 °F 31.6 °F 80% 29.34 in 10.0 mi SSW 19.6 mph 31.1 mph N/A   Overcast
3:55 AM 37.6 °F 26.3 °F 31.3 °F 78% 29.33 in 10.0 mi SW 24.2 mph 33.4 mph N/A   Overcast
4:15 AM 37.4 °F 27.5 °F 31.3 °F 79% 29.34 in 10.0 mi SSW 18.4 mph 32.2 mph N/A   Overcast
4:36 AM 37.4 °F 26.4 °F 30.7 °F 77% 29.35 in 10.0 mi SW 23.0 mph 33.4 mph N/A   Overcast
4:56 AM 37.4 °F 28.2 °F 30.7 °F 77% 29.35 in 10.0 mi SSW 16.1 mph 34.5 mph N/A   Overcast
5:16 AM 37.4 °F 27.5 °F 30.6 °F 76% 29.35 in 10.0 mi SSW 18.4 mph 33.4 mph N/A   Overcast
5:31 AM 37.4 °F 28.2 °F 30.6 °F 76% 29.35 in 10.0 mi SSW 16.1 mph 26.5 mph N/A   Overcast
5:53 AM 37.4 °F 27.2 °F 30.4 °F 76% 29.34 in 10.0 mi SSW 19.6 mph 26.5 mph N/A   Overcast
6:13 AM 37.4 °F 27.2 °F 30.6 °F 76% 29.35 in 10.0 mi SSW 19.6 mph 29.9 mph N/A   Overcast
6:33 AM 37.4 °F 28.2 °F 30.7 °F 77% 29.35 in 10.0 mi SSW 16.1 mph 26.5 mph N/A   Overcast
6:53 AM 37.2 °F 26.7 °F 30.7 °F 77% 29.34 in 10.0 mi SW 20.7 mph 31.1 mph N/A   Overcast
7:13 AM 36.9 °F 26.8 °F 30.9 °F 79% 29.35 in 10.0 mi SSW 18.4 mph 27.6 mph N/A   Overcast
7:34 AM 36.7 °F 26.0 °F 30.9 °F 80% 29.35 in 10.0 mi SW 20.7 mph 31.1 mph N/A   Overcast
7:54 AM 36.5 °F 25.2 °F 29.3 °F 75% 29.35 in 5.0 mi SW 23.0 mph 38.0 mph N/A Snow Light Snow
8:14 AM 35.6 °F 24.2 °F 30.7 °F 82% 29.34 in 3.0 mi SSW 21.9 mph 33.4 mph N/A Snow Light Snow
8:34 AM 35.6 °F 24.8 °F 30.0 °F 80% 29.35 in 7.0 mi SSW 19.6 mph 34.5 mph N/A   Overcast
8:49 AM 34.7 °F 22.2 °F 29.5 °F 81% 29.35 in 3.0 mi SSW 25.3 mph 38.0 mph N/A   Haze
9:11 AM 34.2 °F 21.5 °F 30.2 °F 85% 29.36 in 3.0 mi SSW 25.3 mph 36.8 mph N/A Snow Light Snow
9:31 AM 33.8 °F 22.5 °F 29.8 °F 85% 29.36 in 2.5 mi SW 19.6 mph 33.4 mph N/A   Overcast
9:51 AM 33.4 °F 22.0 °F 29.8 °F 87% 29.36 in 3.0 mi SW 19.6 mph 28.8 mph N/A   Overcast
10:12 AM 33.4 °F 20.1 °F 30.2 °F 88% 29.36 in 2.0 mi SSW 27.6 mph 38.0 mph N/A Snow Light Snow
10:32 AM 33.1 °F 19.8 °F 28.9 °F 85% 29.37 in 2.0 mi SW 26.5 mph 40.3 mph N/A Snow Light Snow
10:52 AM 32.4 °F 20.0 °F 28.8 °F 87% 29.38 in 1.5 mi SSW 21.9 mph 36.8 mph N/A Snow Light Snow
11:12 AM 32.0 °F 18.6 °F 28.0 °F 85% 29.38 in 1.5 mi SW 25.3 mph 35.7 mph N/A Snow Light Snow
11:32 AM 32.0 °F 17.6 °F 27.0 °F 82% 29.39 in 1.8 mi SW 29.9 mph 44.9 mph N/A Snow Light Snow
11:52 AM 32.2 °F 18.1 °F 25.7 °F 77% 29.41 in 10.0 mi SW 28.8 mph 43.7 mph N/A   Overcast
12:12 PM 32.0 °F 19.5 °F 24.4 °F 74% 29.42 in 7.0 mi SW 21.9 mph 41.4 mph N/A   Overcast
12:32 PM 32.0 °F 18.9 °F 24.8 °F 75% 29.42 in 7.0 mi SW 24.2 mph 34.5 mph N/A   Overcast
12:55 PM 31.6 °F 19.3 °F 26.4 °F 81% 29.41 in 4.0 mi SW 20.7 mph 32.2 mph N/A Snow Light Snow
1:15 PM 31.8 °F 18.4 °F 26.2 °F 80% 29.42 in 2.5 mi SW 25.3 mph 36.8 mph N/A   Haze
1:35 PM 31.8 °F 19.0 °F 25.5 °F 78% 29.43 in 3.0 mi SW 23.0 mph 39.1 mph N/A   Haze
1:55 PM 30.9 °F 17.8 °F 25.2 °F 79% 29.44 in 2.0 mi SW 23.0 mph 39.1 mph N/A   Haze
2:15 PM 30.9 °F 16.7 °F 22.5 °F 71% 29.44 in 10.0 mi WSW 27.6 mph 43.7 mph N/A   Overcast
2:35 PM 30.6 °F 15.4 °F 23.2 °F 74% 29.45 in 10.0 mi SW 31.1 mph 40.3 mph N/A   Overcast
2:55 PM 30.2 °F 17.4 °F 22.8 °F 74% 29.47 in 5.0 mi SW 20.7 mph 39.1 mph N/A   Haze
3:15 PM 29.8 °F 14.7 °F 22.1 °F 73% 29.47 in 7.0 mi SW 29.9 mph 41.4 mph N/A   Overcast
3:36 PM 29.8 °F 14.9 °F 22.3 °F 73% 29.49 in 5.0 mi SW 28.8 mph 38.0 mph N/A Snow Light Snow
3:56 PM 29.7 °F 15.5 °F 22.6 °F 75% 29.49 in 2.0 mi SW 25.3 mph 39.1 mph N/A Snow Light Snow
4:13 PM 30.2 °F 16.5 °F 21.9 °F 71% 29.50 in 7.0 mi WSW 24.2 mph 39.1 mph N/A Snow Light Snow
4:33 PM 30.6 °F 16.4 °F 22.1 °F 71% 29.51 in 10.0 mi WSW 26.5 mph 40.3 mph N/A   Overcast
4:53 PM 30.7 °F 19.2 °F 21.7 °F 69% 29.52 in 7.0 mi SW 17.3 mph 35.7 mph N/A   Overcast
5:13 PM 30.9 °F 17.8 °F 21.9 °F 69% 29.53 in 10.0 mi WSW 23.0 mph 31.1 mph N/A   Overcast
5:33 PM 31.1 °F 18.0 °F 21.7 °F 68% 29.53 in 10.0 mi SW 23.0 mph 32.2 mph N/A   Overcast
5:54 PM 31.1 °F 17.4 °F 21.0 °F 66% 29.55 in 10.0 mi WSW 25.3 mph 40.3 mph N/A   Overcast
6:14 PM 31.1 °F 18.9 °F 21.0 °F 66% 29.55 in 10.0 mi SW 19.6 mph 38.0 mph N/A   Overcast
6:34 PM 31.1 °F 18.9 °F 20.8 °F 66% 29.56 in 10.0 mi SW 19.6 mph 34.5 mph N/A   Overcast
6:56 PM 30.7 °F 17.8 °F 20.1 °F 65% 29.57 in 10.0 mi SW 21.9 mph 34.5 mph N/A   Mostly Cloudy
7:16 PM 30.2 °F 17.4 °F 18.9 °F 63% 29.58 in 10.0 mi SW 20.7 mph 32.2 mph N/A   Scattered Clouds
7:31 PM 30.2 °F 17.1 °F 18.7 °F 62% 29.59 in 10.0 mi SW 21.9 mph 39.1 mph N/A   Clear
7:51 PM 29.8 °F 17.3 °F 17.4 °F 60% 29.59 in 10.0 mi SW 19.6 mph 27.6 mph N/A   Clear
8:12 PM 30.0 °F 17.2 °F 17.6 °F 60% 29.60 in 10.0 mi SW 20.7 mph 28.8 mph N/A   Clear
8:32 PM 30.2 °F 17.1 °F 16.9 °F 58% 29.60 in 10.0 mi SW 21.9 mph 33.4 mph N/A   Clear
8:52 PM 29.8 °F 17.0 °F 16.9 °F 59% 29.61 in 10.0 mi SW 20.7 mph 29.9 mph N/A   Clear
9:12 PM 30.0 °F 16.9 °F 15.6 °F 55% 29.61 in 10.0 mi SW 21.9 mph 32.2 mph N/A   Clear
9:32 PM 29.7 °F 16.4 °F 15.6 °F 56% 29.62 in 10.0 mi SW 21.9 mph 38.0 mph N/A   Clear
9:52 PM 29.7 °F 17.4 °F 14.9 °F 54% 29.63 in 10.0 mi WSW 18.4 mph 31.1 mph N/A   Clear
10:14 PM 29.8 °F 15.2 °F 14.5 °F 53% 29.64 in 10.0 mi WSW 27.6 mph 34.5 mph N/A   Clear
10:35 PM 29.7 °F 16.7 °F 14.4 °F 53% 29.64 in 10.0 mi WSW 20.7 mph 31.1 mph N/A   Clear
10:55 PM 29.7 °F 16.4 °F 14.0 °F 52% 29.65 in 10.0 mi WSW 21.9 mph 35.7 mph N/A   Clear
11:15 PM 29.3 °F 15.6 °F 14.2 °F 53% 29.65 in 10.0 mi WSW 23.0 mph 36.8 mph N/A   Clear
11:35 PM 29.3 °F 15.9 °F 14.0 °F 53% 29.65 in 10.0 mi WSW 21.9 mph 27.6 mph N/A   Clear
11:55 PM 29.3 °F 17.3 °F 14.0 °F 53% 29.65 in 10.0 mi WSW 17.3 mph 27.6 mph N/A   Clear